sat.trackr.live / text

‹ back to catalog

STARLINK-6295

NORAD 56554 · 2023-065BD

PAYLOAD ACTIVE UNKNOWN

§ Identity

Operator
Country
US
Launch date
2023-05-14
Launch site
AFETR
Launch vehicle
Mass (kg)
RCS (m²)

Purposes: comms

External: N2YO · Heavens-Above · Gunter

§ Orbital elements

Epoch: 2026-05-25T00:32:14.930592Z

Period
94.27 min
Inclination
43.0031°
Eccentricity
0.0001765
Mean motion
15.27578277 rev/d
Perigee alt
481.8 km
Apogee alt
484.3 km
Semi-major
6,861.2 km
B*
4.7417e-5
RAAN
152.7141°
Arg perigee
269.6685°
Mean anomaly
90.3964°
Rev number
16,814

§ Raw data

STARLINK-62951 56554U 23065BD  26145.02239503  .00001043  00000+0  47417-4 0  99972 56554  43.0031 152.7141 0001765 269.6685  90.3964 15.27578277168142

JSON: /api/v1/satellites/56554 · /tle

For live sub-satellite position, see the globe view (requires WebGL).

§ Visibility from observer

Set your observer location to see the next 7 days of passes ≥ 10°. The values pass through the URL so the page stays shareable.

No JS? Fill the form by hand. The geolocation button needs JavaScript.